Location: Unspecified
(0.0000°N, 0.0000°E)
Time: 13:44:11
(UTC+00:00)

Explorer 11/Cluster Stage 4 - Pass Details

Date: 26 November 2019
Orbit: 467 x 1259 km, 28.8° (Epoch: 08 December)

Event Time Altitude Azimuth Distance (km) Brightness Sun altitude
Rises 11:17:36 0° 224° (SW) 3,158 9.8 67.9°
Reaches altitude 10° 11:20:34 10° 213° (SSW) 2,088 9.1 68.1°
Maximum altitude 11:24:39 28° 154° (SSE) 1,114 8.3 68.4°
Drops below altitude 10° 11:28:09 10° 94° (E) 1,765 8.6 68.6°
Sets 11:30:26 0° 81° (E) 2,578 9.3 68.7°
